[[{"header":{"parameterUnit":"m.s-1","parameterCategory":2,"la1":30.2991,"la2":30.254,"lo1":-89.0895,"lo2":-89.0444,"dy":0.0017,"dx":0.0017,"nx":28,"ny":28,"refTime":"2023-08-07T09:00:00:Z","depth":"0","parameterNumber":2,"parameterNumberName":"U-component_of_CURRENTS"},"data":[0,0,0,0,0,0,0,0,0,0,0,0,0,0,0,0,0,0,0,0,0,0,0,0,0,0,0,0,0,0,0,0,0,0,0,0,0,0,0,0,0,0,0,0,0,0,0,0,0,0,0,0,0,0,0,0,0,0,0.1116,0.1117,0,0.1399,0.1404,0.1409,0.1534,0.1532,0.1529,0.1526,0.1474,0.1475,0.1476,0,0,0,0,0,0,0,0,0,0,0,0,0,0.102,0.1021,0.1116,0.1117,0.1118,0.1398,0.1404,0.1411,0.1535,0.1532,0.1528,0.1525,0.1473,0.1475,0.1476,0,0,0,0,0,0,0,0,0,0,0,0,0,0.1181,0.1021,0.1115,0.1195,0.1203,0.1397,0.1405,0.1412,0.1536,0.1532,0.1527,0.1524,0.1473,0.1474,0.1476,0.1569,0,0,0.1481,0.1482,0,0,0,0,0,0,0,0,0.1172,0.1188,0.1182,0.1189,0.1199,0.1405,0.135,0.1439,0.1537,0.1437,0.1526,0.1522,0.1405,0.1413,0.1517,0.1566,0.1564,0.1482,0.1483,0.1483,0.1484,0,0,0,0,0,0,0,0.116,0.1178,0.1254,0.1183,0.1193,0.133,0.1348,0.1373,0.1454,0.1445,0.1448,0.144,0.1411,0.1515,0.1514,0.1563,0.1482,0.1483,0.1484,0.1485,0.1629,0.1631,0,0,0,0,0,0,0.1061,0.1166,0.1244,0.126,0.1146,0.1332,0.1354,0.1364,0.1461,0.1468,0.1443,0.1445,0.1514,0.1513,0.1512,0.1578,0.1483,0.1485,0.1486,0.1626,0.1629,0.1632,0,0,0,0,0,0,0.1058,0.1066,0.1232,0.1198,0.1225,0.1332,0.1346,0.1371,0.1482,0.1459,0.1464,0.1525,0.1511,0.151,0.1517,0.1576,0.1486,0.1487,0.1623,0.1627,0.1631,0.1735,0,0,0,0,0,0,0.1055,0.1065,0.1067,0.1191,0.1222,0.1348,0.1348,0.1378,0.147,0.1476,0.153,0.1522,0.1508,0.1515,0.1519,0.1576,0.1489,0.1619,0.1624,0.1629,0.1728,0.1743,0.1755,0,0,0,0,0,0.1051,0.1115,0.1066,0.1075,0.1212,0.1347,0.1383,0.1462,0.1477,0.1549,0.1552,0.1521,0.1551,0.1519,0.1523,0.1582,0.1616,0.1623,0.1629,0.1723,0.174,0.1755,0,0,0,0,0,0,0.1096,0.1133,0.1084,0.1152,0.121,0.1358,0.144,0.1485,0.1573,0.1547,0.1552,0.1546,0.1568,0.1569,0.1533,0.164,0.1583,0.159,0.1653,0.1669,0.1682,0.1714,0.149,0,0,0,0,0,0.1082,0.1132,0.1162,0.1214,0.1238,0.1336,0.1406,0.1436,0.1506,0.155,0.1585,0.16,0.1612,0.1627,0.1632,0.1704,0.1701,0.1747,0.176,0.1772,0.1803,0.1824,0.1842,0.1653,0.1653,0.1653,0,0,0.1102,0.1132,0.1152,0.1223,0.1287,0.1374,0.138,0.1473,0.1553,0.1515,0.1652,0.1631,0.1633,0.1693,0.1709,0.1696,0.1829,0.178,0.1789,0.1814,0.1833,0.1851,0.1867,0.1657,0.1656,0.1656,0,0,0.1195,0.1196,0.1257,0.1308,0.1351,0.1422,0.1439,0.1559,0.1616,0.1703,0.1683,0.1708,0.1773,0.1798,0.1811,0.1912,0.1876,0.1906,0.2028,0.2048,0.2064,0.2077,0.2113,0.2129,0.1939,0.194,0.194,0,0.1205,0.1263,0.1303,0.1374,0.1414,0.1442,0.1515,0.1614,0.1721,0.1756,0.1733,0.1856,0.184,0.1931,0.1959,0.1946,0.1943,0.1962,0.2065,0.2078,0.209,0.2123,0.2139,0.1945,0.1945,0.1944,0.1944,0,0.1353,0.1361,0.1422,0.1496,0.1576,0.164,0.1708,0.1795,0.1842,0.1903,0.1985,0.2001,0.2074,0.2079,0.205,0.2147,0.2111,0.2053,0.202,0.2115,0.2144,0.2159,0.1954,0.1952,0.195,0.1948,0,0,0.1449,0.1497,0.1505,0.1481,0.1615,0.1672,0.1826,0.1934,0.2001,0.2101,0.2214,0.2271,0.2269,0.2286,0.2269,0.2307,0.2382,0.2228,0.2226,0.2258,0.2436,0.2559,0.2585,0.2322,0.2325,0.2327,0.2427,0,0.152,0.1575,0.1647,0.1712,0.1723,0.1807,0.1947,0.2042,0.2126,0.2245,0.2294,0.2363,0.2354,0.2361,0.2417,0.2358,0.2424,0.2362,0.2345,0.2346,0.2438,0.2609,0.2553,0.2651,0.2441,0.2443,0.2445,0,0.1643,0.163,0.1667,0.1692,0.1721,0.181,0.1959,0.2077,0.2251,0.2316,0.2442,0.2467,0.2581,0.2521,0.2598,0.2548,0.2526,0.2497,0.2498,0.2592,0.2499,0.252,0.2685,0.2562,0.2467,0.2465,0.2464,0,0.1635,0.1655,0.1646,0.1664,0.1742,0.1801,0.1896,0.2078,0.2173,0.2353,0.2432,0.257,0.2646,0.2651,0.2681,0.2606,0.2746,0.2619,0.2738,0.2744,0.2692,0.2692,0.2737,0.2692,0.2692,0.2692,0.2692,0,0.17,0.1681,0.1596,0.1604,0.1616,0.1714,0.1823,0.1961,0.2149,0.227,0.244,0.2574,0.2674,0.2783,0.2742,0.2856,0.2817,0.2825,0.2807,0.2733,0.2735,0.2619,0.2627,0.2696,0.2695,0.2694,0.2693,0,0.1727,0.1675,0.1626,0.1611,0.1611,0.1622,0.1775,0.1865,0.2052,0.2229,0.2292,0.2592,0.2775,0.2898,0.2954,0.2974,0.2944,0.3045,0.2991,0.297,0.2947,0.2966,0.2932,0.2809,0.3169,0.3173,0.3177,0,0.1727,0.1691,0.1608,0.1562,0.1556,0.1573,0.164,0.1815,0.1921,0.2231,0.2316,0.2608,0.2816,0.3068,0.3214,0.3308,0.3109,0.3263,0.3135,0.3027,0.303,0.2822,0.2701,0.3085,0.3088,0.309,0.3091,0,0.171,0.1682,0.1648,0.1562,0.1542,0.1554,0.1639,0.1688,0.1918,0.2074,0.2321,0.2498,0.2918,0.3076,0.3338,0.339,0.3131,0.3311,0.3179,0.3021,0.2814,0.2657,0.294,0.3109,0.3107,0.3106,0.3105,0.3104,0.1688,0.1657,0.1615,0.1545,0.1532,0.1552,0.1564,0.1658,0.1798,0.2002,0.2208,0.2409,0.2708,0.3133,0.3302,0.3465,0.3329,0.3247,0.3293,0.3095,0.2963,0.335,0.3518,0.3519,0.3519,0.3519,0.352,0,0.1644,0.1657,0.1604,0.1534,0.1535,0.1545,0.159,0.1592,0.1688,0.1846,0.2029,0.2218,0.2485,0.2809,0.3136,0.3253,0.3142,0.3245,0.2871,0.2755,0.3081,0.3062,0.3163,0.3163,0.3163,0.3163,0.3163,0.3163,0.1641,0.1613,0.1601,0.1545,0.1517,0.151,0.1514,0.1518,0.1571,0.1649,0.1712,0.1834,0.2101,0.2523,0.2848,0.2977,0.2794,0.2881,0.2763,0.296,0.2956,0.2952,0.2924,0.2995,0.2996,0.2181,0.2177,0.2173]},{"header":{"parameterUnit":"m.s-1","parameterCategory":2,"la1":30.2991,"la2":30.254,"lo1":-89.0895,"lo2":-89.0444,"dy":0.0017,"dx":0.0017,"nx":28,"ny":28,"refTime":"2023-08-07T09:00:00:Z","depth":"0","parameterNumber":3,"parameterNumberName":"V-component_of_CURRENTS"},"data":[0,0,0,0,0,0,0,0,0,0,0,0,0,0,0,0,0,0,0,0,0,0,0,0,0,0,0,0,0,0,0,0,0,0,0,0,0,0,0,0,0,0,0,0,0,0,0,0,0,0,0,0,0,0,0,0,0,0,0.0107,0.0108,0,0.0008,0.0005,0.0002,-0.0131,-0.0132,-0.0132,-0.0133,-0.0101,-0.01,-0.0099,0,0,0,0,0,0,0,0,0,0,0,0,0,0.0115,0.0114,0.0107,0.0108,0.0108,0.0008,0.0005,0.0001,-0.0131,-0.0132,-0.0132,-0.0133,-0.0102,-0.01,-0.0099,0,0,0,0,0,0,0,0,0,0,0,0,0,0.0054,0.0114,0.0107,0.0045,0.004,0.0009,0.0005,0.0001,-0.0131,-0.0132,-0.0132,-0.0133,-0.0102,-0.01,-0.0099,-0.0077,0,0,-0.0093,-0.0092,0,0,0,0,0,0,0,0,0.0058,0.0051,0.0053,0.0049,0.0044,-0.0032,0.002,-0.0012,-0.0131,-0.0088,-0.0133,-0.0133,-0.0052,-0.0055,-0.0103,-0.0075,-0.0074,-0.0093,-0.0092,-0.0091,-0.0091,0,0,0,0,0,0,0,0.0062,0.0055,0.0047,0.0055,0.0049,0.0001,-0.001,0.0011,-0.0079,-0.0092,-0.0096,-0.0075,-0.0057,-0.0105,-0.0102,-0.0073,-0.0093,-0.0092,-0.009,-0.009,-0.0023,-0.0022,0,0,0,0,0,0,0.0119,0.0059,0.0051,0.0046,0.0072,0.0003,-0.0011,-0.0024,-0.0082,-0.0087,-0.0074,-0.008,-0.0108,-0.0104,-0.0101,-0.0078,-0.0091,-0.009,-0.0089,-0.0023,-0.0022,-0.0022,0,0,0,0,0,0,0.0119,0.0118,0.0055,0.0069,0.006,0.0006,-0.001,-0.0025,-0.0052,-0.0067,-0.0074,-0.0079,-0.0108,-0.0104,-0.0102,-0.0077,-0.0089,-0.0087,-0.0024,-0.0023,-0.0022,-0.0029,0,0,0,0,0,0,0.0119,0.0117,0.0096,0.0072,0.0062,0.0056,-0.0007,-0.0026,-0.0029,-0.0038,-0.0072,-0.0073,-0.0108,-0.0105,-0.0101,-0.0074,-0.0086,-0.0025,-0.0024,-0.0022,-0.0029,-0.0028,-0.0027,0,0,0,0,0,0.0119,0.0122,0.0094,0.0094,0.0043,0.006,0.0048,-0.0006,-0.0027,-0.0036,-0.0083,-0.0071,-0.0092,-0.0104,-0.0099,-0.0071,-0.0026,-0.0024,-0.0022,-0.003,-0.0028,-0.0027,0,0,0,0,0,0,0.0092,0.011,0.0079,0.0076,0.0077,0.0046,0.0058,0.0019,-0.0031,-0.0036,-0.0073,-0.0077,-0.0073,-0.0059,-0.0071,-0.0046,-0.005,-0.0047,-0.0057,-0.0055,-0.0054,0.0001,-0.0084,0,0,0,0,0,0.0088,0.0086,0.0103,0.0086,0.0128,0.0093,0.0088,0.0052,0.003,0.0004,-0.0019,-0.0038,-0.0064,-0.005,-0.0071,-0.0039,-0.0034,-0.0012,-0.0011,-0.001,0.004,0.002,0.0024,-0.0016,-0.0016,-0.0016,0,0,0.0046,0.0078,0.0054,0.0081,0.0093,0.0124,0.0085,0.0106,0.0084,0.0027,0.0002,-0.0036,-0.006,-0.007,-0.0058,-0.0048,-0.0,-0.0008,-0.0007,0.0043,0.0022,0.0026,0.003,-0.0015,-0.0015,-0.0015,0,0,0.0061,0.0044,0.009,0.0112,0.0169,0.0148,0.0175,0.0169,0.0134,0.0111,0.0044,0.003,0.0016,-0.0018,-0.0032,-0.001,-0.001,-0.0008,0.0064,0.0042,0.0046,0.0049,0.0037,0.0039,0.0012,0.0012,0.0012,0,0.0039,0.0069,0.0097,0.0181,0.0194,0.0181,0.0225,0.0192,0.0152,0.0149,0.012,0.007,0.0043,0.0031,0.0014,-0.0003,-0.0017,0.0048,0.0043,0.0046,0.005,0.0037,0.0039,0.0012,0.0012,0.0012,0.0012,0,0.0113,0.0121,0.0178,0.0249,0.0262,0.0297,0.0301,0.0289,0.0258,0.0224,0.0213,0.0147,0.0137,0.0109,0.0064,0.0078,0.0058,0.0024,0.0035,0.0053,0.0039,0.0041,0.0011,0.0011,0.0011,0.0011,0,0,0.0117,0.0208,0.0222,0.0239,0.0295,0.0312,0.0325,0.0335,0.0355,0.0306,0.0329,0.0256,0.0248,0.0235,0.0178,0.0162,0.014,0.0115,0.0113,0.01,0.0096,0.0109,0.0113,0.0088,0.0089,0.009,0.0068,0,0.0173,0.0294,0.0314,0.0347,0.0404,0.0389,0.0396,0.0387,0.0385,0.0404,0.0364,0.0359,0.0287,0.0281,0.0254,0.0167,0.0152,0.0151,0.0089,0.0089,0.0094,0.0119,0.0236,0.023,0.007,0.0071,0.0071,0,0.0278,0.0315,0.0387,0.0394,0.0427,0.0425,0.0452,0.0453,0.0487,0.0499,0.0518,0.0495,0.0476,0.0406,0.0316,0.0313,0.0229,0.0158,0.0154,0.0188,0.0109,0.0193,0.0241,0.02,0.0075,0.0075,0.0075,0,0.0305,0.0371,0.0406,0.0413,0.0432,0.0439,0.0443,0.0484,0.0518,0.0573,0.0629,0.0601,0.0604,0.0499,0.0377,0.0341,0.0276,0.0202,0.014,0.0139,0.0248,0.0256,0.0259,0.0156,0.0156,0.0156,0.0156,0,0.038,0.0403,0.0409,0.042,0.043,0.0451,0.0496,0.0519,0.0596,0.0672,0.068,0.0746,0.0627,0.0581,0.0435,0.0321,0.0324,0.0187,0.0148,0.0246,0.0254,0.023,0.0141,0.0155,0.0156,0.0156,0.0156,0,0.043,0.0451,0.0464,0.0454,0.0453,0.046,0.0517,0.0573,0.0644,0.0754,0.0782,0.0857,0.0822,0.0694,0.0546,0.0417,0.0287,0.0232,0.0367,0.0344,0.0241,0.0147,0.0102,0.0227,0.0171,0.0171,0.0172,0,0.0469,0.0486,0.0473,0.048,0.0473,0.049,0.0527,0.0585,0.067,0.0822,0.0891,0.0933,0.0991,0.0818,0.0638,0.0439,0.0342,0.0368,0.0325,0.0292,0.0156,0.0088,0.0195,0.0452,0.0454,0.0456,0.0458,0,0.0468,0.0474,0.0474,0.0515,0.053,0.0567,0.0628,0.0704,0.0807,0.0921,0.1081,0.1146,0.1076,0.0998,0.0762,0.0611,0.0413,0.0403,0.0344,0.0378,0.0334,0.0418,0.04,0.0477,0.0475,0.0474,0.0473,0.0472,0.0437,0.0453,0.048,0.0526,0.0573,0.0664,0.0736,0.0848,0.0992,0.1202,0.1217,0.1348,0.1254,0.1005,0.0826,0.0603,0.0544,0.0502,0.0389,0.0324,0.0462,0.0492,0.053,0.0528,0.0527,0.0526,0.0525,0,0.0366,0.0433,0.0493,0.0561,0.0659,0.0684,0.0824,0.0943,0.1141,0.1294,0.1438,0.1479,0.1343,0.1132,0.0836,0.0639,0.0634,0.0506,0.0466,0.0584,0.0605,0.064,0.0736,0.0736,0.0736,0.0737,0.0737,0.0737,0.0345,0.0381,0.0451,0.0603,0.0698,0.085,0.0948,0.1147,0.1294,0.1512,0.1606,0.1685,0.1596,0.0997,0.0667,0.0577,0.0524,0.0396,0.0401,0.039,0.0382,0.0375,0.0393,0.0437,0.0436,0.056,0.0559,0.0559]}],[{"header":{"parameterUnit":"m.s-1","parameterCategory":2,"la1":30.2991,"la2":30.254,"lo1":-89.0895,"lo2":-89.0444,"dy":0.0017,"dx":0.0017,"nx":28,"ny":28,"refTime":"2023-08-07T09:00:00:Z","depth":"2","parameterNumber":2,"parameterNumberName":"U-component_of_CURRENTS"},"data":[0,0,0,0,0,0,0,0,0,0,0,0,0,0,0,0,0,0,0,0,0,0,0,0,0,0,0,0,0,0,0,0,0,0,0,0,0,0,0,0,0,0,0,0,0,0,0,0,0,0,0,0,0,0,0,0,0,0,-0.0466,-0.0458,0,-0.0626,-0.0638,-0.065,-0.1086,-0.1084,-0.1082,-0.108,-0.0635,-0.0625,-0.0615,0,0,0,0,0,0,0,0,0,0,0,0,0,-0.0419,-0.0429,-0.0467,-0.0457,-0.0448,-0.0624,-0.0639,-0.0653,-0.1086,-0.1084,-0.1081,-0.1079,-0.0638,-0.0627,-0.0615,0,0,0,0,0,0,0,0,0,0,0,0,0,-0.0613,-0.0433,-0.0468,-0.0595,-0.0599,-0.0622,-0.0639,-0.0657,-0.1086,-0.1084,-0.1081,-0.1078,-0.0642,-0.0628,-0.0613,-0.0577,0,0,-0.0567,-0.056,0,0,0,0,0,0,0,0,-0.0602,-0.0631,-0.0585,-0.0585,-0.0588,-0.0725,-0.0451,-0.0557,-0.1087,-0.1032,-0.108,-0.1077,-0.0529,-0.0525,-0.0746,-0.0556,-0.0537,-0.0565,-0.0556,-0.055,-0.0546,0,0,0,0,0,0,0,-0.0589,-0.0623,-0.0656,-0.0572,-0.0573,-0.0592,-0.0634,-0.0487,-0.0879,-0.1037,-0.1037,-0.086,-0.0544,-0.0761,-0.0733,-0.0531,-0.0566,-0.0552,-0.0543,-0.0537,-0.0065,-0.0062,0,0,0,0,0,0,-0.0332,-0.0613,-0.0648,-0.0647,-0.0449,-0.0587,-0.0638,-0.0785,-0.0894,-0.0877,-0.0862,-0.0877,-0.0788,-0.0751,-0.0717,-0.0497,-0.055,-0.0536,-0.0527,-0.0068,-0.0064,-0.006,0,0,0,0,0,0,-0.0338,-0.0349,-0.0639,-0.0514,-0.0536,-0.058,-0.0748,-0.0786,-0.0937,-0.0745,-0.0743,-0.0942,-0.0785,-0.0738,-0.0516,-0.0484,-0.0529,-0.0515,-0.0073,-0.0067,-0.0062,-0.0161,0,0,0,0,0,0,-0.0344,-0.0361,-0.0476,-0.0508,-0.0529,-0.0632,-0.0737,-0.0787,-0.0771,-0.08,-0.0809,-0.0776,-0.0779,-0.0539,-0.0501,-0.0464,-0.0503,-0.0077,-0.007,-0.0064,-0.0162,-0.016,-0.0158,0,0,0,0,0,-0.0348,-0.0464,-0.0493,-0.0485,-0.0671,-0.0617,-0.0655,-0.0743,-0.0774,-0.0884,-0.0816,-0.0773,-0.0472,-0.0523,-0.048,-0.0438,-0.008,-0.0072,-0.0064,-0.0163,-0.016,-0.0158,0,0,0,0,0,0,-0.0468,-0.0505,-0.0541,-0.0666,-0.0598,-0.0643,-0.065,-0.0697,-0.0791,-0.071,-0.0708,-0.0669,-0.049,-0.0405,-0.0463,-0.0277,-0.0273,-0.0256,-0.0363,-0.0359,-0.0357,-0.0411,-0.0491,0,0,0,0,0,-0.0521,-0.0708,-0.0596,-0.0699,-0.0611,-0.064,-0.0633,-0.0622,-0.0584,-0.0646,-0.068,-0.0582,-0.0452,-0.0347,-0.0271,-0.0113,-0.0035,-0.0056,-0.0055,-0.0054,-0.0063,0.0146,0.0164,-0.0035,-0.0035,-0.0035,0,0,-0.0593,-0.0595,-0.0716,-0.0734,-0.0705,-0.0665,-0.0673,-0.0536,-0.0586,-0.0521,-0.0677,-0.0563,-0.0404,-0.0312,-0.0217,-0.021,0.0031,-0.0044,-0.0045,-0.0055,0.0156,0.0175,0.0192,-0.0029,-0.003,-0.0031,0,0,-0.0646,-0.079,-0.0874,-0.079,-0.0549,-0.0601,-0.0512,-0.0511,-0.0608,-0.0566,-0.055,-0.0425,-0.0315,-0.0281,-0.0193,-0.0089,0.0026,-0.0008,-0.0025,0.0178,0.0195,0.0211,0.0257,0.0279,0.0005,0.0005,0.0005,0,-0.0685,-0.0783,-0.0854,-0.0749,-0.0603,-0.0555,-0.0431,-0.0573,-0.0557,-0.0552,-0.0562,-0.0455,-0.0339,-0.0182,-0.0178,-0.0098,0.003,-0.0064,0.0176,0.0194,0.0212,0.0257,0.0282,0.0002,0.0002,0.0002,0.0003,0,-0.071,-0.0721,-0.0665,-0.0672,-0.0619,-0.0433,-0.0403,-0.0506,-0.0538,-0.0602,-0.0498,-0.043,-0.0333,-0.029,-0.0187,0.0002,0.0047,0.0136,0.0147,0.0225,0.0268,0.0295,-0.0004,-0.0003,-0.0001,-0.0,0,0,-0.0911,-0.0744,-0.0698,-0.062,-0.0458,-0.0414,-0.0462,-0.0462,-0.0486,-0.0555,-0.0577,-0.0438,-0.0376,-0.0271,-0.0156,-0.0012,0.0179,0.0144,0.0157,0.0146,0.0582,0.0326,0.033,0.0379,0.0386,0.0391,0.0529,0,-0.084,-0.0613,-0.0597,-0.0477,-0.0328,-0.03,-0.0386,-0.0387,-0.0447,-0.0553,-0.0452,-0.04,-0.037,-0.0231,-0.0098,0.0187,0.0267,0.0128,0.0547,0.0554,0.0286,0.0359,0.0333,0.0435,0.0556,0.0561,0.0564,0,-0.0813,-0.065,-0.037,-0.0284,-0.0218,-0.0216,-0.0225,-0.0271,-0.0356,-0.0361,-0.0317,-0.0292,-0.0115,-0.0102,0.0282,0.0244,0.039,0.0516,0.0529,0.0345,0.0351,0.0402,0.0481,0.061,0.0607,0.0603,0.06,0,-0.0772,-0.0554,-0.0315,-0.0219,-0.0105,-0.0065,-0.011,-0.0156,-0.0179,-0.0211,-0.0193,-0.006,0.0052,0.0309,0.0521,0.0506,0.0898,0.091,0.0727,0.0707,0.0779,0.0752,0.1094,0.1093,0.1093,0.1093,0.1092,0,-0.0675,-0.0531,-0.0265,-0.0103,-0.0023,0.0065,0.0092,0.0005,0.0023,0.0035,-0.0028,-0.0012,0.0198,0.0375,0.0582,0.0741,0.0967,0.0705,0.0752,0.0729,0.0698,0.0948,0.0929,0.1098,0.1097,0.1096,0.1095,0,-0.0704,-0.0427,-0.0234,-0.0003,0.0047,0.0094,0.0135,0.0127,0.0176,0.0194,0.0217,0.0138,0.0293,0.0411,0.0764,0.0779,0.0998,0.0961,0.0803,0.082,0.0621,0.0597,0.0761,0.0753,0.0747,0.0742,0.0738,0,-0.0623,-0.0456,-0.0211,-0.0106,0.0004,0.0101,0.0155,0.0194,0.0228,0.0276,0.0299,0.0305,0.0223,0.0467,0.0542,0.0702,0.0803,0.072,0.0595,0.057,0.0602,0.0586,0.0571,0.0658,0.0653,0.0649,0.0646,0,-0.053,-0.0445,-0.0319,-0.0093,0.0043,0.0039,0.0148,0.0194,0.0307,0.0317,0.0373,0.0309,0.0275,0.0303,0.0319,0.0397,0.0694,0.062,0.0849,0.0662,0.0463,0.0494,0.0487,0.0612,0.0616,0.0618,0.062,0.0621,-0.0466,-0.0483,-0.0238,-0.0097,0.0003,0.0039,0.0124,0.0169,0.0235,0.0298,0.032,0.0288,0.0236,0.0128,0.021,0.0263,0.0229,0.0332,0.0353,0.0376,0.0255,0.0049,0.0091,0.0092,0.0092,0.0092,0.0093,0,-0.0478,-0.041,-0.0249,-0.0052,-0.0008,0.0108,0.0196,0.0268,0.0348,0.0282,0.0281,0.0217,0.0101,0.0154,0.0184,0.011,0.0169,0.0101,0.03,0.0327,0.0354,0.0242,0.0072,0.0072,0.0073,0.0073,0,0,-0.0381,-0.034,-0.0286,-0.002,0.0142,0.0348,0.0444,0.0406,0.041,0.0261,0.0277,0.0117,0.0207,0.0221,0.0126,0.02,0.0269,0.0129,0.0137,0.0406,0.0435,0.0453,0.0302,0,0,0,0,0]},{"header":{"parameterUnit":"m.s-1","parameterCategory":2,"la1":30.2991,"la2":30.254,"lo1":-89.0895,"lo2":-89.0444,"dy":0.0017,"dx":0.0017,"nx":28,"ny":28,"refTime":"2023-08-07T09:00:00:Z","depth":"2","parameterNumber":3,"parameterNumberName":"V-component_of_CURRENTS"},"data":[0,0,0,0,0,0,0,0,0,0,0,0,0,0,0,0,0,0,0,0,0,0,0,0,0,0,0,0,0,0,0,0,0,0,0,0,0,0,0,0,0,0,0,0,0,0,0,0,0,0,0,0,0,0,0,0,0,0,-0.0126,-0.0123,0,-0.0217,-0.0222,-0.0228,-0.0491,-0.0492,-0.0493,-0.0493,-0.0336,-0.0332,-0.0327,0,0,0,0,0,0,0,0,0,0,0,0,0,-0.0099,-0.0103,-0.0126,-0.0122,-0.0119,-0.0216,-0.0223,-0.0229,-0.0491,-0.0492,-0.0493,-0.0494,-0.0338,-0.0332,-0.0326,0,0,0,0,0,0,0,0,0,0,0,0,0,-0.0195,-0.0105,-0.0127,-0.0221,-0.0226,-0.0215,-0.0223,-0.0231,-0.0491,-0.0492,-0.0493,-0.0494,-0.034,-0.0333,-0.0325,-0.0259,0,0,-0.0303,-0.03,0,0,0,0,0,0,0,0,-0.0189,-0.0203,-0.0211,-0.0214,-0.0219,-0.0296,-0.0152,-0.0209,-0.0491,-0.0449,-0.0493,-0.0495,-0.0262,-0.0262,-0.0359,-0.0252,-0.0245,-0.0303,-0.0298,-0.0295,-0.0293,0,0,0,0,0,0,0,-0.0183,-0.0199,-0.0218,-0.0205,-0.021,-0.0225,-0.0248,-0.017,-0.0386,-0.0452,-0.0458,-0.038,-0.0271,-0.0366,-0.0355,-0.0243,-0.0303,-0.0296,-0.0292,-0.0289,-0.0214,-0.0217,0,0,0,0,0,0,-0.0065,-0.0194,-0.0214,-0.0215,-0.0144,-0.0221,-0.0249,-0.0315,-0.0393,-0.0392,-0.0379,-0.0391,-0.0378,-0.0363,-0.0349,-0.0312,-0.0295,-0.0288,-0.0284,-0.0212,-0.0215,-0.0217,0,0,0,0,0,0,-0.0067,-0.0072,-0.021,-0.0153,-0.0165,-0.0216,-0.0291,-0.0315,-0.0425,-0.0329,-0.0336,-0.0457,-0.0378,-0.0359,-0.0304,-0.0304,-0.0285,-0.0278,-0.0209,-0.0213,-0.0216,-0.0207,0,0,0,0,0,0,-0.0069,-0.0077,-0.0119,-0.015,-0.0161,-0.0233,-0.0284,-0.0314,-0.0346,-0.0367,-0.0395,-0.0384,-0.0378,-0.0316,-0.0297,-0.0293,-0.0273,-0.0206,-0.0211,-0.0215,-0.0204,-0.0209,-0.0214,0,0,0,0,0,-0.0071,-0.0104,-0.0126,-0.0123,-0.0214,-0.0228,-0.0248,-0.0316,-0.0347,-0.0425,-0.042,-0.0385,-0.0333,-0.0309,-0.0288,-0.0282,-0.0204,-0.0209,-0.0215,-0.0202,-0.0208,-0.0214,0,0,0,0,0,0,-0.0114,-0.0128,-0.0154,-0.0196,-0.0209,-0.0253,-0.0259,-0.0315,-0.0395,-0.0387,-0.0373,-0.0361,-0.0324,-0.0309,-0.0284,-0.029,-0.0277,-0.0279,-0.0276,-0.0281,-0.0286,-0.0255,-0.0267,0,0,0,0,0,-0.0123,-0.02,-0.0169,-0.0223,-0.0185,-0.0234,-0.0246,-0.0297,-0.0314,-0.0363,-0.0361,-0.0354,-0.0333,-0.0309,-0.0293,-0.0251,-0.0223,-0.0255,-0.026,-0.0264,-0.0234,-0.0246,-0.0248,-0.0235,-0.0235,-0.0235,0,0,-0.0156,-0.0159,-0.0209,-0.0236,-0.024,-0.023,-0.0266,-0.027,-0.0299,-0.0302,-0.0347,-0.0345,-0.0327,-0.0319,-0.0303,-0.0298,-0.025,-0.0271,-0.0273,-0.024,-0.0252,-0.0252,-0.0253,-0.0239,-0.0238,-0.0237,0,0,-0.0169,-0.0241,-0.0252,-0.0256,-0.0201,-0.0236,-0.0225,-0.0256,-0.0307,-0.0312,-0.0334,-0.0331,-0.0306,-0.0317,-0.0306,-0.0317,-0.0273,-0.0336,-0.032,-0.0334,-0.0333,-0.0333,-0.0266,-0.0259,-0.0342,-0.0342,-0.0342,0,-0.0192,-0.0218,-0.0255,-0.0217,-0.0198,-0.0227,-0.0206,-0.0255,-0.0295,-0.0287,-0.0313,-0.0323,-0.0305,-0.0284,-0.032,-0.0318,-0.0302,-0.0285,-0.0334,-0.0333,-0.0333,-0.0265,-0.0257,-0.0342,-0.0342,-0.0342,-0.0342,0,-0.017,-0.019,-0.0168,-0.0179,-0.0199,-0.0184,-0.0175,-0.0213,-0.0243,-0.0273,-0.0263,-0.0281,-0.0284,-0.0308,-0.0303,-0.0306,-0.0284,-0.033,-0.0302,-0.0332,-0.026,-0.0252,-0.0343,-0.0343,-0.0342,-0.0342,0,0,-0.0215,-0.0169,-0.0164,-0.015,-0.0171,-0.0179,-0.0186,-0.0188,-0.0178,-0.0226,-0.022,-0.023,-0.0244,-0.0236,-0.0257,-0.0281,-0.0258,-0.0305,-0.0306,-0.0205,-0.0232,-0.0246,-0.0238,-0.0325,-0.0325,-0.0324,-0.0169,0,-0.0173,-0.0102,-0.0121,-0.0115,-0.0065,-0.0114,-0.0132,-0.0157,-0.0176,-0.0184,-0.0184,-0.0182,-0.0213,-0.0216,-0.0242,-0.0246,-0.0244,-0.0291,-0.0245,-0.0241,-0.0225,-0.0233,-0.0273,-0.0143,-0.0161,-0.016,-0.0159,0,-0.0105,-0.008,-0.0025,-0.0046,-0.0028,-0.0052,-0.0081,-0.0105,-0.0105,-0.0103,-0.0102,-0.0118,-0.0104,-0.0169,-0.0147,-0.0179,-0.0193,-0.0213,-0.0209,-0.0214,-0.0243,-0.0128,-0.0128,-0.0146,-0.0147,-0.0148,-0.0149,0,-0.0054,-0.0018,0.0017,0.0013,-0.0006,-0.0002,-0.0039,-0.0062,-0.004,-0.0044,-0.0017,-0.0031,-0.0024,-0.0048,-0.0092,-0.0108,-0.0098,-0.0121,-0.0131,-0.0128,-0.0144,-0.0146,-0.0124,-0.0124,-0.0125,-0.0125,-0.0126,0,0.0015,0.0042,0.0058,0.0083,0.0095,0.0047,0.0058,0.0042,0.0053,0.0099,0.004,0.0062,-0.0012,-0.0028,-0.0055,-0.0056,-0.0055,-0.0096,-0.0101,-0.0142,-0.0145,-0.015,-0.0156,-0.0119,-0.0121,-0.0122,-0.0123,0,0.0078,0.0106,0.015,0.0146,0.0144,0.0148,0.0137,0.0161,0.0159,0.022,0.0234,0.0171,0.0151,0.0082,0.003,0.0003,-0.0013,-0.0036,-0.0043,-0.0053,-0.0013,-0.002,0.0062,0.0063,0.0063,0.0063,0.0064,0,0.0103,0.0137,0.0191,0.0234,0.0245,0.0246,0.0259,0.0234,0.0284,0.0291,0.0349,0.0297,0.0253,0.0181,0.0112,0.0098,0.0012,0.0016,-0.0034,0.0014,0.0001,-0.0007,-0.0014,-0.0018,-0.0019,-0.0019,-0.0019,0,0.0101,0.0148,0.0211,0.0311,0.0354,0.037,0.0405,0.0473,0.0463,0.051,0.0536,0.0475,0.0365,0.0238,0.0125,0.0104,0.0025,0.0013,0.0044,-0.0086,-0.0058,-0.0073,-0.0078,-0.0022,-0.0022,-0.0022,-0.0021,-0.0021,0.0125,0.0157,0.0268,0.0372,0.044,0.0514,0.0565,0.0626,0.0691,0.0688,0.0606,0.0494,0.0241,0.0109,0.0059,0.008,0.0095,0.0015,0.0015,0.0015,-0.0049,-0.0027,0.0011,0.0012,0.0012,0.0013,0.0013,0,0.0131,0.0184,0.0294,0.0439,0.0544,0.0559,0.0679,0.0738,0.0859,0.0708,0.0635,0.0379,0.0178,0.0054,0.0102,0.0047,0.0055,0.0006,-0.0023,-0.0022,-0.0021,-0.0088,-0.0036,-0.0036,-0.0035,-0.0035,0,0,0.0159,0.0261,0.0332,0.0505,0.0609,0.0742,0.0839,0.0935,0.0926,0.0746,0.0597,0.0216,0.0134,0.0065,-0.0043,0.0018,0.0037,0.0031,0.0064,0.0041,0.0045,-0.0035,-0.014,0,0,0,0,0]}],[{"header":{"parameterUnit":"m.s-1","parameterCategory":2,"la1":30.2991,"la2":30.254,"lo1":-89.0895,"lo2":-89.0444,"dy":0.0017,"dx":0.0017,"nx":28,"ny":28,"refTime":"2023-08-07T09:00:00:Z","depth":"4","parameterNumber":2,"parameterNumberName":"U-component_of_CURRENTS"},"data":[0,0,0,0,0,0,0,0,0,0,0,0,0,0,0,0,0,0,0,0,0,0,0,0,0,0,0,0,0,0,0,0,0,0,0,0,0,0,0,0,0,0,0,0,0,0,0,0,0,0,0,0,0,0,0,0,0,0,-0.0968,-0.0968,0,-0.0932,-0.0931,-0.093,-0.0913,-0.0914,-0.0915,-0.0915,-0.103,-0.1033,-0.1035,0,0,0,0,0,0,0,0,0,0,0,0,0,-0.0967,-0.0966,-0.0968,-0.0968,-0.0968,-0.0932,-0.0931,-0.093,-0.0913,-0.0914,-0.0915,-0.0915,-0.103,-0.1033,-0.1036,0,0,0,0,0,0,0,0,0,0,0,0,0,-0.0947,-0.0966,-0.0968,-0.0959,-0.0959,-0.0932,-0.0931,-0.0929,-0.0913,-0.0914,-0.0915,-0.0916,-0.1029,-0.1032,-0.1036,-0.1043,0,0,-0.1048,-0.1049,0,0,0,0,0,0,0,0,-0.0948,-0.0946,-0.0961,-0.096,-0.0959,-0.0933,-0.0973,-0.0977,-0.0913,-0.0924,-0.0915,-0.0916,-0.1015,-0.102,-0.1001,-0.1048,-0.1053,-0.1048,-0.105,-0.1052,-0.1053,0,0,0,0,0,0,0,-0.095,-0.0948,-0.0948,-0.0961,-0.096,-0.0939,-0.0937,-0.0972,-0.0964,-0.0924,-0.0924,-0.0929,-0.1015,-0.0997,-0.1004,-0.1055,-0.1048,-0.1051,-0.1054,-0.1055,-0.1201,-0.1202,0,0,0,0,0,0,-0.0968,-0.0949,-0.0949,-0.0947,-0.0962,-0.0939,-0.0937,-0.0936,-0.096,-0.0965,-0.0928,-0.0928,-0.099,-0.1,-0.1009,-0.1074,-0.1052,-0.1056,-0.1058,-0.1199,-0.1201,-0.1203,0,0,0,0,0,0,-0.0968,-0.0968,-0.095,-0.0952,-0.0949,-0.0939,-0.0938,-0.0935,-0.0936,-0.0963,-0.097,-0.0935,-0.0991,-0.1003,-0.1053,-0.1077,-0.1057,-0.1061,-0.1197,-0.12,-0.1202,-0.1171,0,0,0,0,0,0,-0.0968,-0.0968,-0.0963,-0.0953,-0.095,-0.095,-0.0938,-0.0934,-0.0939,-0.0939,-0.0972,-0.0981,-0.0993,-0.1047,-0.1057,-0.1082,-0.1064,-0.1195,-0.1198,-0.1201,-0.117,-0.1172,-0.1174,0,0,0,0,0,-0.0967,-0.0964,-0.0963,-0.0963,-0.0947,-0.0951,-0.0947,-0.0938,-0.0939,-0.0941,-0.0963,-0.0981,-0.1074,-0.1051,-0.1062,-0.1089,-0.1194,-0.1197,-0.1201,-0.117,-0.1172,-0.1174,0,0,0,0,0,0,-0.0963,-0.0962,-0.0961,-0.0957,-0.0963,-0.0951,-0.0953,-0.0949,-0.0961,-0.0979,-0.0991,-0.1003,-0.1056,-0.1083,-0.1058,-0.1144,-0.1142,-0.1147,-0.1114,-0.1117,-0.1119,-0.1114,-0.1067,0,0,0,0,0,-0.0961,-0.0954,-0.0961,-0.0958,-0.097,-0.0964,-0.0962,-0.097,-0.0983,-0.0987,-0.1002,-0.104,-0.1075,-0.1104,-0.1137,-0.1182,-0.1193,-0.1213,-0.1215,-0.1216,-0.1222,-0.1247,-0.1251,-0.1214,-0.1214,-0.1214,0,0,-0.096,-0.0957,-0.0953,-0.0956,-0.0961,-0.0979,-0.0964,-0.0987,-0.0992,-0.1005,-0.1019,-0.1046,-0.1088,-0.1129,-0.1159,-0.1159,-0.1231,-0.122,-0.122,-0.1227,-0.1251,-0.1254,-0.1257,-0.1217,-0.1216,-0.1216,0,0,-0.0954,-0.0958,-0.0954,-0.0973,-0.0997,-0.0999,-0.1014,-0.1022,-0.1017,-0.1042,-0.1052,-0.1085,-0.1138,-0.1154,-0.1176,-0.1215,-0.1236,-0.1247,-0.1255,-0.1278,-0.1281,-0.1283,-0.1286,-0.1288,-0.1252,-0.1251,-0.1251,0,-0.0953,-0.095,-0.0955,-0.0974,-0.0995,-0.1015,-0.1039,-0.1036,-0.1052,-0.1049,-0.1058,-0.1113,-0.1143,-0.1184,-0.1198,-0.1216,-0.1233,-0.1233,-0.1277,-0.128,-0.1282,-0.1285,-0.1288,-0.125,-0.1251,-0.1251,-0.1251,0,-0.0953,-0.0963,-0.0975,-0.0999,-0.1021,-0.1054,-0.1075,-0.1083,-0.1089,-0.1081,-0.1113,-0.114,-0.1174,-0.1193,-0.1209,-0.1253,-0.1259,-0.1267,-0.126,-0.1284,-0.1286,-0.1289,-0.1249,-0.1249,-0.125,-0.125,0,0,-0.0925,-0.0962,-0.097,-0.0989,-0.1048,-0.1066,-0.109,-0.1099,-0.1102,-0.1121,-0.1116,-0.1169,-0.118,-0.1208,-0.1232,-0.1257,-0.128,-0.128,-0.1281,-0.1262,-0.1328,-0.1176,-0.1166,-0.1301,-0.1302,-0.1303,-0.1315,0,-0.0924,-0.0946,-0.0975,-0.1018,-0.1041,-0.1088,-0.11,-0.1121,-0.1124,-0.1121,-0.1145,-0.1164,-0.1187,-0.1212,-0.124,-0.127,-0.1294,-0.1276,-0.1327,-0.1328,-0.1173,-0.1166,-0.1307,-0.1318,-0.1319,-0.1319,-0.132,0,-0.0917,-0.093,-0.0965,-0.1017,-0.1036,-0.1071,-0.1107,-0.1123,-0.1132,-0.1135,-0.116,-0.1172,-0.1209,-0.1227,-0.1286,-0.1279,-0.1312,-0.133,-0.1331,-0.1204,-0.1183,-0.1298,-0.1327,-0.1327,-0.1326,-0.1325,-0.1325,0,-0.0877,-0.0928,-0.0948,-0.0977,-0.104,-0.1065,-0.1098,-0.1123,-0.1123,-0.1145,-0.1144,-0.1188,-0.1204,-0.1258,-0.129,-0.1303,-0.134,-0.1356,-0.1248,-0.1238,-0.1386,-0.1384,-0.1406,-0.1406,-0.1406,-0.1406,-0.1406,0,-0.0859,-0.0882,-0.0934,-0.0956,-0.0982,-0.1048,-0.1073,-0.1097,-0.1126,-0.1117,-0.1154,-0.1143,-0.1219,-0.1236,-0.1285,-0.1254,-0.1335,-0.1239,-0.1227,-0.1372,-0.1369,-0.1387,-0.1385,-0.1406,-0.1406,-0.1406,-0.1406,0,-0.0815,-0.0849,-0.0881,-0.0947,-0.0964,-0.099,-0.1053,-0.1056,-0.1098,-0.109,-0.1098,-0.1115,-0.1115,-0.1165,-0.1228,-0.1212,-0.1224,-0.1205,-0.1335,-0.1332,-0.1113,-0.111,-0.1076,-0.1071,-0.1066,-0.1062,-0.1059,0,-0.079,-0.0801,-0.0862,-0.087,-0.0905,-0.0947,-0.096,-0.1026,-0.103,-0.1051,-0.1032,-0.1031,-0.1035,-0.098,-0.106,-0.1096,-0.1104,-0.1107,-0.1128,-0.1086,-0.1079,-0.1082,-0.1085,-0.1052,-0.1051,-0.1049,-0.1048,0,-0.0751,-0.0781,-0.0802,-0.0811,-0.0835,-0.0847,-0.0881,-0.0874,-0.0934,-0.0982,-0.0916,-0.0891,-0.0866,-0.088,-0.0899,-0.0944,-0.1098,-0.106,-0.1071,-0.109,-0.1056,-0.1055,-0.1063,-0.1032,-0.1035,-0.1036,-0.1037,0,-0.0728,-0.0718,-0.0741,-0.0748,-0.0755,-0.073,-0.0767,-0.0763,-0.0775,-0.0818,-0.0791,-0.0794,-0.0833,-0.0799,-0.0829,-0.0828,-0.0834,-0.0839,-0.0862,-0.088,-0.081,-0.0738,-0.0593,0,0,0,0,0,-0.0691,-0.0663,-0.0667,-0.0648,-0.0649,-0.0649,-0.0695,-0.0739,-0.08,-0.0719,-0.0754,-0.0723,-0.069,-0.0701,-0.0665,-0.0763,-0.0858,-0.072,-0.088,-0.0945,-0.0963,-0.0899,0,0,0,0,0,0,-0.066,-0.0654,-0.0643,-0.0564,-0.0521,-0.0506,-0.0528,-0.0575,-0.0549,-0.0614,-0.06,-0.0652,-0.0642,-0.0678,-0.0631,-0.0642,-0.0725,-0.0745,-0.0743,-0.0935,-0.0951,-0.0966,-0.0907,0,0,0,0,0]},{"header":{"parameterUnit":"m.s-1","parameterCategory":2,"la1":30.2991,"la2":30.254,"lo1":-89.0895,"lo2":-89.0444,"dy":0.0017,"dx":0.0017,"nx":28,"ny":28,"refTime":"2023-08-07T09:00:00:Z","depth":"4","parameterNumber":3,"parameterNumberName":"V-component_of_CURRENTS"},"data":[0,0,0,0,0,0,0,0,0,0,0,0,0,0,0,0,0,0,0,0,0,0,0,0,0,0,0,0,0,0,0,0,0,0,0,0,0,0,0,0,0,0,0,0,0,0,0,0,0,0,0,0,0,0,0,0,0,0,-0.0053,-0.0052,0,-0.0023,-0.0023,-0.0023,-0.0008,-0.0007,-0.0006,-0.0005,-0.0006,-0.0007,-0.0008,0,0,0,0,0,0,0,0,0,0,0,0,0,-0.0005,-0.0007,-0.0053,-0.0052,-0.0051,-0.0023,-0.0023,-0.0023,-0.0008,-0.0007,-0.0006,-0.0005,-0.0006,-0.0007,-0.0008,0,0,0,0,0,0,0,0,0,0,0,0,0,-0.0013,-0.0008,-0.0053,-0.0034,-0.0031,-0.0022,-0.0023,-0.0023,-0.0008,-0.0007,-0.0006,-0.0005,-0.0006,-0.0007,-0.0008,-0.0038,0,0,-0.0011,-0.0012,0,0,0,0,0,0,0,0,-0.0013,-0.0016,-0.0038,-0.0035,-0.0032,-0.001,-0.0005,-0.0027,-0.0008,-0.0026,-0.0005,-0.0004,-0.0006,-0.0007,-0.0015,-0.0038,-0.0038,-0.0011,-0.0012,-0.0012,-0.0013,0,0,0,0,0,0,0,-0.0013,-0.0017,-0.005,-0.0036,-0.0033,0.0007,0.0005,-0.001,-0.003,-0.0024,-0.0021,-0.0004,-0.0006,-0.0014,-0.0015,-0.0038,-0.0011,-0.0012,-0.0013,-0.0013,-0.0075,-0.0076,0,0,0,0,0,0,-0.0007,-0.0017,-0.005,-0.0048,-0.001,0.0005,0.0003,-0.0025,-0.0029,-0.0025,-0.0005,-0.0004,-0.0013,-0.0014,-0.0015,-0.0033,-0.0012,-0.0013,-0.0014,-0.0074,-0.0075,-0.0076,0,0,0,0,0,0,-0.0007,-0.0012,-0.0051,-0.0022,-0.0023,0.0003,-0.0028,-0.0025,-0.0031,-0.0013,-0.0011,-0.0012,-0.0012,-0.0013,-0.0013,-0.0034,-0.0014,-0.0015,-0.0073,-0.0074,-0.0075,-0.0082,0,0,0,0,0,0,-0.0006,-0.0013,-0.0032,-0.0023,-0.0024,-0.0042,-0.0028,-0.0025,-0.0018,-0.0016,-0.0019,-0.0017,-0.0011,-0.0011,-0.0014,-0.0035,-0.0016,-0.0071,-0.0073,-0.0075,-0.008,-0.0083,-0.0086,0,0,0,0,0,-0.0005,-0.0024,-0.0035,-0.0037,-0.0053,-0.0041,-0.0039,-0.002,-0.002,-0.0023,-0.0016,-0.0017,-0.0025,-0.0012,-0.0016,-0.0037,-0.007,-0.0073,-0.0075,-0.0079,-0.0082,-0.0085,0,0,0,0,0,0,0.001,-0.0024,-0.0035,-0.0059,-0.005,-0.0035,-0.0027,-0.0026,-0.0028,-0.0029,-0.0021,-0.0019,-0.0025,-0.0035,-0.0021,-0.0062,-0.0053,-0.0056,-0.0055,-0.0058,-0.0061,-0.0079,-0.0017,0,0,0,0,0,-0.0004,-0.0052,-0.0045,-0.0068,-0.0059,-0.0052,-0.0045,-0.0041,-0.0034,-0.0034,-0.0038,-0.0044,-0.0041,-0.005,-0.005,-0.0077,-0.0078,-0.0097,-0.01,-0.0102,-0.012,-0.013,-0.0135,-0.0083,-0.0083,-0.0083,0,0,-0.0004,-0.0027,-0.0052,-0.0071,-0.0064,-0.007,-0.0047,-0.0042,-0.0057,-0.0035,-0.0061,-0.0047,-0.0046,-0.006,-0.0068,-0.0071,-0.0114,-0.0105,-0.0106,-0.0124,-0.0133,-0.0138,-0.0142,-0.0085,-0.0084,-0.0084,0,0,-0.0015,-0.0048,-0.008,-0.0086,-0.0081,-0.008,-0.008,-0.0077,-0.008,-0.0094,-0.0079,-0.0078,-0.0091,-0.0093,-0.0094,-0.0121,-0.0117,-0.0126,-0.0167,-0.0175,-0.0179,-0.0183,-0.0171,-0.0174,-0.014,-0.0141,-0.0141,0,-0.001,-0.0062,-0.0077,-0.0098,-0.0103,-0.0089,-0.0104,-0.0108,-0.0112,-0.0122,-0.0102,-0.0121,-0.011,-0.0131,-0.0131,-0.0128,-0.0124,-0.0148,-0.0178,-0.0182,-0.0185,-0.0172,-0.0175,-0.0141,-0.0141,-0.0141,-0.0141,0,-0.0047,-0.008,-0.0088,-0.0136,-0.0143,-0.0151,-0.0153,-0.017,-0.0171,-0.0175,-0.0189,-0.017,-0.0186,-0.0179,-0.0158,-0.0189,-0.0172,-0.0165,-0.0165,-0.0191,-0.0175,-0.0178,-0.0142,-0.0142,-0.0141,-0.0141,0,0,-0.0068,-0.0108,-0.0115,-0.0141,-0.0169,-0.0179,-0.0208,-0.0225,-0.0252,-0.025,-0.0279,-0.0263,-0.0256,-0.0258,-0.0239,-0.0244,-0.0244,-0.022,-0.022,-0.0201,-0.0249,-0.0214,-0.0214,-0.0239,-0.024,-0.0241,-0.0219,0,-0.009,-0.0126,-0.0155,-0.0202,-0.0216,-0.0237,-0.0269,-0.0293,-0.0299,-0.0325,-0.0309,-0.032,-0.0286,-0.0288,-0.0289,-0.0261,-0.0256,-0.025,-0.0235,-0.0234,-0.0195,-0.0218,-0.0245,-0.0222,-0.0222,-0.0223,-0.0223,0,-0.013,-0.0148,-0.0181,-0.0242,-0.0252,-0.0287,-0.0344,-0.0373,-0.0399,-0.0404,-0.0417,-0.04,-0.041,-0.0367,-0.0353,-0.0351,-0.0305,-0.0274,-0.0272,-0.0247,-0.0207,-0.0198,-0.0228,-0.0228,-0.0227,-0.0227,-0.0227,0,-0.0139,-0.0184,-0.021,-0.0231,-0.0283,-0.0319,-0.0353,-0.0395,-0.0427,-0.0455,-0.0472,-0.048,-0.0478,-0.0449,-0.0377,-0.0373,-0.0341,-0.033,-0.0254,-0.0249,-0.0282,-0.0278,-0.0312,-0.0312,-0.0312,-0.0312,-0.0312,0,-0.0169,-0.0202,-0.0216,-0.0238,-0.0298,-0.0332,-0.0403,-0.0437,-0.0478,-0.052,-0.0514,-0.0535,-0.0496,-0.0466,-0.0406,-0.0339,-0.0367,-0.027,-0.0251,-0.0282,-0.0279,-0.0282,-0.0279,-0.0311,-0.0311,-0.0312,-0.0312,0,-0.0195,-0.0198,-0.0241,-0.0282,-0.0306,-0.0352,-0.0438,-0.0486,-0.0515,-0.0569,-0.0579,-0.0582,-0.0548,-0.0484,-0.0422,-0.0371,-0.0311,-0.0266,-0.0292,-0.0272,-0.0207,-0.0204,-0.0215,-0.0214,-0.0213,-0.0212,-0.0211,0,-0.0206,-0.022,-0.0269,-0.0304,-0.0332,-0.0398,-0.0454,-0.0504,-0.0542,-0.0595,-0.0614,-0.0595,-0.0581,-0.0475,-0.0408,-0.0299,-0.0264,-0.0237,-0.0239,-0.0221,-0.0202,-0.0201,-0.02,-0.021,-0.0209,-0.0209,-0.0209,0,-0.0231,-0.0247,-0.0284,-0.0338,-0.0398,-0.0472,-0.0536,-0.0556,-0.061,-0.0633,-0.064,-0.0598,-0.0547,-0.047,-0.0366,-0.0288,-0.0273,-0.0226,-0.0228,-0.023,-0.0215,-0.0196,-0.0196,-0.0206,-0.0206,-0.0206,-0.0207,0,-0.0254,-0.0285,-0.0322,-0.0379,-0.0457,-0.0521,-0.0555,-0.0592,-0.0627,-0.0648,-0.0649,-0.0605,-0.0581,-0.0462,-0.0379,-0.0292,-0.0276,-0.0255,-0.0256,-0.0258,-0.0271,-0.0258,-0.0258,0,0,0,0,0,-0.0264,-0.0301,-0.0359,-0.0427,-0.0506,-0.0539,-0.0606,-0.0626,-0.0646,-0.0649,-0.0643,-0.0591,-0.0488,-0.0453,-0.0359,-0.0359,-0.026,-0.0247,-0.0235,-0.0186,-0.019,-0.0194,0,0,0,0,0,0,-0.0277,-0.0331,-0.0357,-0.045,-0.0495,-0.0584,-0.0617,-0.0635,-0.0622,-0.0627,-0.0566,-0.0558,-0.0447,-0.0527,-0.0351,-0.033,-0.0309,-0.0202,-0.02,-0.0184,-0.0188,-0.0191,-0.0196,0,0,0,0,0]}]]